Location: Cedar Ridge
(38.0658°N, 120.2769°W)
Time: 21:22:59
(UTC+00:00)

Cosmos 1825 Rocket - Pass Details

Date: 10 September 2024
Orbit: 599 x 626 km, 82.5° (Epoch: 12 October)

Event Time Altitude Azimuth Distance (km) Brightness Sun altitude
Rises 12:59:09 0° 344° (NNW) 2,913 7.0 -8.6°
Reaches altitude 10° 13:01:29 10° 337° (NNW) 1,999 6.1 -8.1°
Maximum altitude 13:05:37 40° 268° (W) 919 4.0 -7.3°
Drops below altitude 10° 13:09:42 10° 199° (SSW) 1,970 5.9 -6.6°
Sets 13:12:00 0° 192° (SSW) 2,866 6.7 -6.1°
